SCP
0 0 0 0 0 0 0 1 1 3 5 8 11 11 10 10 11 13 16 16 15 16 16 16 15 14 12 11 11 11 11 11 11 12 11 11 10 9 9 8 8 9 9 8
0 0 0 0 0 0 0 1 2 3 6 9 12 11 9 9 10 13 16 17 16 17 17 16 14 13 12 12 13 13 12 12 11 10 9 9 8 8 8 9 9 9 9 8
0 0 0 0 1 1 1 1 2 4 6 9 12 13 12 11 11 13 17 19 18 17 16 15 12 12 13 14 16 16 15 13 11 9 8 8 8 8 9 10 10 10 10 10
0 0 1 1 1 2 2 2 3 5 7 10 13 17 17 15 14 15 18 20 17 13 13 13 11 11 14 17 18 18 17 16 14 12 10 9 9 9 10 12 12 12 12 12
0 0 1 1 2 2 3 3 4 6 9 12 15 18 19 17 16 16 16 15 13 11 12 14 14 13 15 17 18 19 19 19 18 17 15 13 12 12 13 13 14 14 15 15
1 0 1 1 2 3 3 4 5 8 12 14 14 15 15 15 15 14 12 11 12 12 14 16 18 18 17 16 16 17 18 20 21 21 18 16 15 15 15 14 13 15 16 17
1 1 1 2 4 6 6 7 9 11 14 15 13 12 13 13 13 13 12 13 15 16 17 18 21 21 19 15 14 15 17 18 20 20 18 16 16 15 14 12 12 14 16 17
1 2 2 4 6 7 8 9 11 12 14 15 13 11 11 11 13 15 16 16 17 18 17 19 22 22 19 16 15 16 18 18 19 18 15 14 13 12 11 11 11 12 14 14
3 4 5 5 6 6 8 9 9 10 12 12 10 10 10 12 15 16 15 13 13 13 13 17 21 22 20 18 16 16 18 18 18 16 13 11 10 10 10 10 9 10 10 10
6 6 7 7 6 6 6 6 6 7 8 9 9 9 10 12 14 13 10 8 8 8 9 13 17 18 17 17 16 15 15 15 14 12 10 9 8 8 9 9 8 8 8 9
6 7 8 8 7 6 5 5 5 5 6 8 9 9 9 10 10 9 7 6 6 6 7 9 10 11 11 13 14 13 12 11 9 9 8 8 7 6 6 6 6 6 7 8
5 6 6 7 7 6 5 5 5 5 6 7 8 8 8 7 8 8 8 7 6 6 6 6 6 6 7 9 9 9 9 9 8 7 7 7 7 6 5 4 4 4 5 5
4 4 4 5 5 5 5 6 6 6 6 7 7 7 7 7 8 8 7 6 5 5 5 5 5 5 6 6 7 7 8 8 7 7 7 7 6 6 5 4 3 2 2 2
3 3 3 4 5 5 5 6 5 6 6 6 6 6 7 7 7 6 5 5 4 4 4 4 4 4 5 6 7 7 7 7 6 6 7 7 6 6 5 4 3 2 2 1
2 2 3 3 4 4 4 4 4 4 5 5 4 4 5 5 5 5 4 4 3 3 3 3 3 3 4 5 6 7 6 5 5 6 6 6 6 5 5 5 4 4 3 2
2 2 2 2 3 2 2 3 3 3 3 2 2 2 2 3 4 4 4 3 3 3 3 3 3 3 4 5 6 6 5 4 4 5 5 5 5 5 5 5 6 6 5 3
1 1 2 2 2 2 2 2 2 2 2 1 1 1 2 2 3 3 3 3 3 3 3 3 3 4 5 6 6 6 5 4 4 4 5 5 5 5 5 6 6 6 5 4
1 1 2 2 2 2 2 2 2 2 2 2 2 2 2 3 3 3 3 3 4 4 4 4 4 4 5 6 7 6 6 5 4 4 5 6 6 6 6 6 6 6 4 3
1 1 2 2 2 2 2 2 2 3 3 3 3 3 3 3 3 2 2 3 4 5 5 4 4 5 5 6 6 7 6 6 5 5 6 6 6 5 5 5 5 5 4 3
1 2 2 2 2 2 2 3 3 4 4 5 5 4 3 3 2 2 2 2 3 3 3 3 3 3 4 4 5 5 5 5 5 5 5 5 5 5 5 4 4 5 5 4
2 2 2 2 1 2 2 2 3 3 4 4 4 3 2 2 2 2 2 2 2 2 2 1 1 2 2 3 3 3 3 3 3 3 3 4 4 5 5 4 4 4 4 4
1 1 1 1 1 1 1 2 2 2 2 2 2 2 2 2 2 2 2 2 1 1 1 1 0 1 1 1 2 2 2 2 2 2 2 2 4 5 5 5 4 4 4 3
1 1 1 1 1 1 1 1 1 1 1 1 2 2 2 2 2 2 2 1 1 0 0 0 0 0 0 1 1 2 2 2 2 2 2 2 3 4 5 5 5 4 4 3
1 1 1 1 1 1 1 1 1 1 1 1 1 2 2 2 2 1 1 1 0 0 0 0 0 0 0 0 1 1 1 2 2 2 2 2 3 4 4 5 4 4 4 4
2 2 1 1 0 1 1 1 1 1 1 1 1 1 1 1 1 1 0 0 0 0 0 0 0 0 0 0 0 0 1 1 1 2 2 3 3 3 3 3 3 4 4 5
2 2 2 1 1 1 1 0 0 0 0 0 0 0 0 0 0 0 0 0 0 0 0 0 0 0 0 0 0 0 0 0 1 1 2 2 2 2 2 2 2 3 3 4
2 2 2 1 1 0 0 0 0 0 0 0 0 0 0 0 0 0 0 0 0 0 0 0 0 0 0 0 0 0 0 0 0 0 1 1 1 1 2 2 2 2 2 3
Wind_Speed
16 16 15 14 14 14 13 13 13 7 5 4 4 2 3 4 6 7 8 8 7 7 5 5 4 4 4 4 4 5 5 6 6 5 5 5 5 4 4 4 5 4 3 3
15 17 17 17 15 14 13 13 12 7 3 3 5 5 4 5 7 8 7 6 5 6 6 4 3 3 3 2 2 3 3 4 4 4 5 5 5 5 4 4 4 4 4 3
14 16 17 18 14 13 11 11 10 7 2 6 6 6 4 5 7 7 7 6 5 5 5 4 3 2 1 1 2 2 2 2 3 3 4 4 5 5 5 5 4 4 4 4
12 13 17 11 7 8 7 8 5 2 4 6 6 6 7 6 6 6 6 5 4 4 3 3 2 1 1 2 1 2 2 2 2 3 3 4 4 4 4 4 4 4 4 3
10 14 14 9 5 5 5 5 6 2 4 5 5 7 8 8 7 6 6 5 4 3 4 4 4 2 2 2 1 1 2 2 2 2 2 3 4 4 3 3 3 4 3 3
11 13 11 5 4 7 4 2 8 6 4 3 2 2 4 6 5 5 5 4 4 5 4 4 4 3 2 2 1 1 1 0 1 2 2 3 3 3 3 3 3 3 3 3
13 13 7 3 4 3 3 2 7 6 5 2 3 4 4 5 6 5 4 4 4 3 3 3 3 3 2 2 1 1 1 1 2 2 3 3 3 2 2 3 3 3 3 3
10 12 5 6 5 4 3 4 6 6 5 5 5 5 4 4 5 4 3 3 3 2 3 3 3 3 2 1 2 2 1 2 2 2 2 2 2 2 3 3 3 4 3 3
3 1 3 5 5 4 4 4 2 2 3 3 2 3 3 3 3 3 3 3 3 2 3 2 2 1 1 1 1 2 2 2 2 2 2 1 2 2 2 2 3 3 2 2
1 0 2 4 5 6 6 6 5 4 3 1 2 2 3 3 2 1 2 2 2 2 2 2 2 2 2 1 1 2 2 2 2 2 2 1 1 1 1 1 2 1 1 1
3 1 2 2 4 4 4 4 4 4 3 3 2 2 1 1 2 2 1 1 2 2 1 1 2 3 3 2 2 2 3 3 3 3 2 1 1 1 0 1 0 1 0 0
3 4 4 5 6 4 3 4 4 3 3 3 2 1 1 1 1 2 2 2 2 2 2 2 3 3 4 3 2 3 3 3 3 2 1 1 2 2 5 3 2 2 1 2
4 6 5 6 6 6 5 5 4 3 3 3 2 2 2 2 2 2 2 3 3 3 3 3 3 3 4 4 3 3 3 3 3 3 2 2 2 2 2 2 3 3 3 4
4 4 5 5 5 6 6 5 4 4 3 2 1 2 2 2 2 2 3 3 3 3 3 3 4 4 4 5 4 4 4 3 3 2 2 2 1 2 2 2 2 2 2 3
4 4 4 5 5 5 5 5 4 3 2 2 2 2 2 3 2 2 3 3 3 3 3 3 4 4 4 5 4 4 4 2 2 2 2 1 1 1 1 1 2 3 3 2
4 5 4 4 5 6 6 5 5 4 3 3 3 2 2 1 2 2 2 2 3 3 3 3 4 4 4 4 3 3 2 2 2 2 1 1 1 1 1 1 2 2 2 2
4 4 4 4 5 5 5 5 5 4 3 3 3 2 2 2 2 2 2 2 2 2 3 3 4 4 4 3 3 3 2 2 3 2 1 1 0 0 0 0 1 2 2 2
4 4 3 3 4 4 4 4 4 3 3 3 2 2 2 2 2 2 3 3 2 3 4 5 5 5 4 4 3 2 2 2 2 1 0 0 1 1 1 1 2 2 2 2
3 2 2 3 3 3 3 4 4 3 3 3 3 3 3 3 2 2 2 3 3 4 4 5 5 5 5 4 4 2 2 1 1 0 1 1 1 1 1 2 2 2 2 2
2 2 2 2 2 2 3 3 3 4 4 4 3 3 3 3 3 3 3 3 3 3 4 4 4 4 4 5 5 3 2 1 0 0 0 1 1 1 1 2 2 2 2 2
1 2 2 2 2 2 3 3 3 4 4 3 3 3 3 3 4 3 3 3 4 5 4 3 3 4 4 5 5 2 1 1 1 1 0 1 1 1 1 2 2 2 2 2
1 2 2 2 2 3 3 3 3 3 3 3 3 3 3 4 4 4 4 3 3 4 3 3 3 6 8 7 3 3 3 2 2 1 1 1 1 1 2 1 1 2 2 2
2 3 3 3 3 3 2 3 3 3 3 3 3 4 4 3 2 2 2 2 3 4 3 4 6 8 9 4 3 4 4 3 2 2 2 1 1 1 1 1 2 2 2 2
3 3 3 3 3 3 3 3 3 3 3 3 3 3 2 1 2 2 3 3 3 3 3 4 6 7 6 3 3 4 4 3 3 2 2 2 2 2 2 2 2 2 2 2
2 2 3 2 2 2 2 2 2 3 3 3 4 3 2 2 2 2 2 2 1 1 2 2 2 4 3 3 3 3 3 3 3 2 2 2 2 3 2 2 1 2 2 2
2 2 2 2 2 1 1 1 1 2 2 3 2 2 2 2 2 1 1 1 2 1 0 1 1 1 1 2 2 2 2 2 2 1 2 2 2 2 2 2 2 2 3 3
2 2 1 1 1 1 1 1 1 2 2 2 2 2 2 2 2 1 2 1 1 1 1 1 1 1 2 2 2 2 2 2 2 2 2 2 2 2 2 3 2 2 2 3
Wind_Direction
271 275 270 263 252 246 249 261 269 261 239 166 144 126 107 94 95 88 79 74 79 96 98 108 121 122 132 144 152 161 167 178 181 182 185 185 191 194 191 195 201 195 203 204
268 269 269 267 258 254 248 253 260 258 255 105 112 75 81 93 94 94 88 81 71 74 76 81 84 103 124 140 139 146 165 179 174 181 188 191 195 193 188 194 198 191 197 198
265 267 270 260 257 260 256 250 258 255 237 115 114 96 83 79 90 89 84 75 74 70 65 57 55 53 87 137 148 155 160 178 179 183 184 188 198 188 190 193 194 195 200 198
264 265 258 267 283 281 283 282 273 218 124 110 108 104 92 77 77 83 79 75 62 69 71 65 50 72 53 66 134 157 158 178 188 200 199 195 196 194 190 189 193 196 202 195
256 256 254 260 302 326 300 299 339 11 99 99 103 118 101 80 66 59 67 58 43 44 59 49 32 39 60 48 39 160 162 186 212 209 203 202 202 199 195 193 197 199 193 187
251 259 262 282 350 352 325 280 11 19 55 85 118 178 107 82 77 69 66 65 51 31 42 52 43 31 49 53 57 54 39 263 231 217 202 206 214 209 198 193 201 200 194 187
247 255 260 341 1 346 277 359 8 16 12 29 46 48 75 72 65 57 64 67 63 47 31 45 35 29 30 17 6 1 336 290 279 249 222 209 200 201 206 212 205 205 202 195
251 253 250 15 36 42 51 50 14 8 14 31 55 65 74 73 71 57 50 67 71 51 37 38 32 28 32 358 339 331 312 275 267 262 252 224 206 210 208 215 218 212 210 199
308 311 62 45 57 45 39 50 27 352 11 43 32 58 57 57 69 62 22 24 33 30 29 28 22 17 327 304 313 311 302 289 268 260 260 241 223 223 215 213 225 222 207 199
273 102 44 51 51 36 23 8 345 346 355 15 19 33 38 31 29 47 31 8 353 346 3 4 347 329 313 295 281 283 281 277 262 238 237 236 258 244 206 237 232 219 213 211
257 18 345 23 38 22 9 336 324 337 333 342 350 9 25 24 356 341 344 333 316 316 323 326 328 322 326 334 307 289 280 274 271 260 235 192 131 31 80 47 353 279 289 178
337 14 346 346 1 349 341 329 334 342 337 324 318 304 307 319 318 312 317 318 303 303 313 324 328 327 330 326 306 291 285 280 273 261 231 196 154 105 64 84 77 80 117 135
12 4 345 332 340 343 341 331 330 328 316 305 301 290 290 293 301 304 300 303 303 307 321 326 325 327 329 324 315 301 294 294 292 282 260 238 205 183 155 98 73 75 89 109
4 350 331 331 337 347 336 329 328 326 326 321 310 295 290 286 284 287 293 302 308 317 322 322 323 329 332 325 320 308 299 294 290 286 278 263 243 235 205 175 154 120 99 118
347 339 319 326 329 332 327 322 316 315 319 305 299 300 301 300 309 321 330 329 328 329 329 334 332 329 327 316 316 310 304 308 309 298 286 276 272 265 227 175 152 144 133 124
334 322 318 337 336 325 319 317 311 311 312 311 306 299 303 331 359 358 356 352 347 335 336 328 323 323 323 325 321 307 295 292 274 269 261 244 240 242 219 157 147 142 130 122
310 312 319 326 316 310 310 314 315 310 312 310 312 325 351 20 10 355 354 355 6 350 338 335 334 331 333 337 318 296 282 270 264 253 250 261 247 252 270 118 124 123 118 107
298 295 298 298 303 313 315 313 305 304 309 315 350 4 2 17 2 350 351 351 3 12 15 15 4 350 342 340 329 304 293 283 276 269 230 142 124 115 132 129 116 113 122 118
297 306 323 325 333 349 354 347 332 345 7 20 21 15 17 21 13 6 8 14 21 22 9 8 354 342 337 338 326 295 288 282 278 313 79 109 133 114 124 121 125 127 122 111
336 3 1 356 2 10 5 0 359 7 17 23 32 43 42 38 31 39 38 33 21 5 354 358 342 338 335 336 323 304 310 318 299 109 98 111 107 97 97 102 100 104 109 113
33 42 28 12 22 27 20 13 18 22 25 33 43 46 51 57 54 52 44 36 15 3 350 342 344 350 346 332 313 314 346 26 24 29 58 102 109 107 102 101 103 104 103 109
47 59 47 35 35 33 28 26 30 30 25 34 45 52 60 65 62 56 47 41 30 0 351 9 17 5 347 328 339 13 29 44 45 38 46 79 102 97 93 106 119 125 120 115
42 53 44 37 45 44 38 35 36 41 40 44 47 48 56 61 62 65 60 44 45 25 21 23 11 5 354 348 15 29 30 33 35 39 41 41 70 91 100 121 122 116 104 103
48 50 48 44 53 63 59 57 54 63 74 73 75 79 86 87 81 76 84 79 48 29 36 35 20 8 355 358 16 23 22 21 25 32 36 25 37 62 73 80 89 97 106 109
58 59 67 59 55 62 81 91 95 95 92 82 79 78 71 69 72 72 85 102 104 31 63 51 16 354 348 360 16 20 17 15 23 25 38 49 59 66 72 89 103 109 106 106
81 66 67 65 58 37 46 86 92 87 91 89 81 67 59 68 80 90 103 107 118 131 44 61 49 357 344 357 13 9 23 41 42 47 47 57 71 78 78 74 86 83 91 94
111 101 90 83 82 60 47 72 77 79 81 85 90 84 70 58 55 52 42 36 50 46 39 37 36 24 12 28 38 27 23 22 18 25 48 71 75 71 79 83 74 78 84 100